This is the latest recevied weather packets stored in our database for station/object N8HON. If no packets are shown the sender has not sent any weather packets the latest 10 day(s).
| Time | Temp. | Humidity | Pressure | Rain* | Wind** | Luminosity | Snow |
|---|---|---|---|---|---|---|---|
| 1778197536 | 12.22° C | 48% | 1009.3 hPa | 0 mm | - | 19 W/m² | - |
| 1778197233 | 12.78° C | 51% | 1009.3 hPa | 0 mm | - | 24 W/m² | - |
| 1778196930 | 12.78° C | 48% | 1009.4 hPa | 0 mm | - | 24 W/m² | - |
| 1778196629 | 12.78° C | 51% | 1009.2 hPa | 0 mm | - | 30 W/m² | - |
| 1778196325 | 13.33° C | 47% | 1009.3 hPa | 0 mm | - | 36 W/m² | - |
| 1778196022 | 13.33° C | 50% | 1009.2 hPa | 0 mm | - | 38 W/m² | - |
| 1778195718 | 12.78° C | 47% | 1009.2 hPa | 0 mm | - | 42 W/m² | - |
| 1778195416 | 13.33° C | 50% | 1009.1 hPa | 0 mm | - | 35 W/m² | - |
| 1778195113 | 13.33° C | 50% | 1008.8 hPa | 0 mm | - | 32 W/m² | - |
| 1778194809 | 13.33° C | 46% | 1008.6 hPa | 0 mm | - | 35 W/m² | - |
| 1778194504 | 13.89° C | 45% | 1008.6 hPa | 0 mm | - | 43 W/m² | - |
| 1778194200 | 13.89° C | 48% | 1008.6 hPa | 0 mm | - | 40 W/m² | - |
| 1778193896 | 13.89° C | 47% | 1008.6 hPa | 0 mm | - | 51 W/m² | - |
| 1778193593 | 14.44° C | 47% | 1008.9 hPa | 0 mm | - | 81 W/m² | - |
| 1778193289 | 13.89° C | 48% | 1008.4 hPa | 0 mm | - | 47 W/m² | - |
| 1778192986 | 13.89° C | 48% | 1008.4 hPa | 0 mm | - | 64 W/m² | - |
| 1778192683 | 13.89° C | 47% | 1008.3 hPa | 0 mm | - | 58 W/m² | - |
| 1778192379 | 14.44° C | 47% | 1008.3 hPa | 0 mm | - | 51 W/m² | - |
| 1778192076 | 14.44° C | 48% | 1008.4 hPa | 0 mm | - | 48 W/m² | - |
| 1778191772 | 14.44° C | 45% | 1008.1 hPa | 0 mm | - | 47 W/m² | - |
| 1778191470 | 15° C | 46% | 1008.1 hPa | 0 mm | - | 49 W/m² | - |
| 1778191167 | 15° C | 48% | 1008 hPa | 0 mm | - | 52 W/m² | - |
| 1778190863 | 15.56° C | 45% | 1008 hPa | 0 mm | - | 63 W/m² | - |
| 1778190561 | 16.11° C | 45% | 1007.6 hPa | 0 mm | - | 67 W/m² | - |
| 1778190259 | 16.67° C | 47% | 1007.9 hPa | 0 mm | - | 293 W/m² | - |
* Rain latest hour (hover to see other rain measurements)
** Current wind speed in m/s (hover to see current wind gust speed)